Weather History for Gage, OK

Change the Weather History Date:

Friday, October 11, 2013

  Actual Average Record
Temperature  
Mean Temperature 65 °F -  
Max Temperature 80 °F 75 °F 93 °F (1962)
Min Temperature 48 °F 46 °F 28 °F (1993)
Growing Degree Days 15 (Base 50)    
Moisture  
Dew Point 41 °F    
Average Humidity 50    
Maximum Humidity 93    
Minimum Humidity 17    
Precipitation  
Precipitation 0.00 in - - ()
Sea Level Pressure  
Sea Level Pressure 29.75 in    
Wind  
Wind Speed 14 mph (SW)    
Max Wind Speed 23 mph    
Max Gust Speed 32 mph    
Visibility 10 miles    
Events      
Averages and records for this station are not official NWS values.
T = Trace of Precipitation, MM = Missing Value Source: NWS Daily Summary

Daily Weather History Graph

Daily Weather History Graph

Search for Another Location

Airport:

Trip Planner

Search our weather history database for the weather conditions in past years. The results will help you decide how hot, cold, wet, or windy it might be!

Date:

Astronomy

Oct. 11, 2013 Rise Set
Actual Time 7:42 AM CDT 7:08 PM CDT
Civil Twilight 7:17 AM CDT 7:33 PM CDT
Nautical Twilight 6:47 AM CDT 8:03 PM CDT
Astronomical Twilight 6:17 AM CDT 8:33 PM CDT
Moon 2:20 PM CDT (10/11) No Moon Set
Length of Visible Light 12h 16m
Length of Day
11h 25m
Waxing Crescent, 47% of the Moon is Illuminated
Oct 11
Waxing Crescent
Oct 11
First Quarter
Oct 18
Full
Oct 26
Last Quarter
Nov 3
New

Hourly Weather History & Observations

Time (CDT) Temp. Dew Point Humidity Pressure Visibility Wind Dir Wind Speed Gust Speed Precip Events Conditions
12:53 AM 70.0 °F 57.9 °F 65% 29.68 in 10.0 mi South 23.0 mph 32.2 mph N/A   Scattered Clouds
1:53 AM 68.0 °F 57.9 °F 70% 29.69 in 10.0 mi South 18.4 mph 28.8 mph N/A   Partly Cloudy
2:53 AM 66.0 °F 57.9 °F 75% 29.69 in 10.0 mi South 18.4 mph - N/A   Clear
4:53 AM 61.0 °F 57.9 °F 90% 29.69 in 10.0 mi South 10.4 mph - N/A   Clear
5:53 AM 59.0 °F 57.0 °F 93% 29.70 in 10.0 mi South 10.4 mph - N/A   Clear
6:53 AM 59.0 °F 57.0 °F 93% 29.71 in 10.0 mi South 16.1 mph - N/A   Clear
7:53 AM 57.0 °F 55.0 °F 93% 29.73 in 9.0 mi South 11.5 mph - N/A   Clear
8:53 AM 57.9 °F 44.1 °F 60% 29.75 in 10.0 mi SW 11.5 mph - N/A   Clear
9:53 AM 63.0 °F 37.0 °F 38% 29.76 in 10.0 mi WSW 12.7 mph - N/A   Clear
10:53 AM 68.0 °F 30.9 °F 25% 29.75 in 10.0 mi WSW 18.4 mph - N/A   Clear
11:53 AM 72.0 °F 28.9 °F 20% 29.74 in 10.0 mi WSW 17.3 mph 26.5 mph N/A   Clear
12:53 PM 75.0 °F 30.0 °F 19% 29.74 in 10.0 mi WSW 16.1 mph 24.2 mph N/A   Clear
1:53 PM 77.0 °F 28.0 °F 17% 29.72 in 10.0 mi WSW 17.3 mph - N/A   Clear
2:53 PM 78.1 °F 28.9 °F 17% 29.70 in 10.0 mi WSW 10.4 mph 19.6 mph N/A   Clear
3:53 PM 79.0 °F 30.0 °F 17% 29.70 in 10.0 mi WSW 15.0 mph - N/A   Clear
4:53 PM 79.0 °F 30.0 °F 17% 29.71 in 10.0 mi South 5.8 mph - N/A   Clear
5:53 PM 78.1 °F 30.9 °F 18% 29.73 in 10.0 mi WNW 6.9 mph - N/A   Clear
6:53 PM 71.1 °F 37.0 °F 29% 29.76 in 10.0 mi NNE 3.5 mph - N/A   Clear
7:53 PM 61.0 °F 37.9 °F 42% 29.81 in 10.0 mi North 6.9 mph - N/A   Clear
8:53 PM 59.0 °F 37.9 °F 46% 29.82 in 10.0 mi East 3.5 mph - N/A   Clear
9:53 PM 51.1 °F 39.9 °F 66% 29.86 in 10.0 mi Calm Calm - N/A   Clear
10:53 PM 53.1 °F 39.0 °F 59% 29.87 in 10.0 mi East 3.5 mph - N/A   Clear
11:53 PM 48.0 °F 39.0 °F 71% 29.91 in 10.0 mi NW 3.5 mph - N/A   Clear